,,,PA_Meas_PMT16A,,PR_Meas_QMR101_102,,RH_Meas_QMH101,,SR_Meas_QMS101,,TA_Meas_QMH101,,GenWind,,GenWind,
date,time,status,PA,status,PR,status,RH,status,SR,status,TA,status,DirAvg,status,SpdAvg,
2011-11-28, 00:00:04,VALID,1001.98,VALID,0,VALID,83.8261,VALID,0.0815089,VALID,27.168,VALID,67,VALID,0.86875,
2011-11-28, 00:01:04,VALID,1001.99,VALID,0,VALID,83.788,VALID,0,VALID,27.2285,VALID,42,VALID,0.836719,
2011-11-28, 00:02:04,VALID,1002,VALID,0,VALID,83.788,VALID,0,VALID,27.209,VALID,54,VALID,1.61406,
2011-11-28, 00:03:04,VALID,1001.94,VALID,0,VALID,83.788,VALID,0,VALID,27.1875,VALID,101,VALID,0.392969,
2011-11-28, 00:04:04,VALID,1001.93,VALID,0,VALID,83.9101,VALID,0,VALID,27.1875,VALID,114,VALID,0.853125,
2011-11-28, 00:05:04,VALID,1001.84,VALID,0,VALID,83.8109,VALID,0,VALID,27.2285,VALID,50,VALID,2.19883,
2011-11-28, 00:06:04,VALID,1001.88,VALID,0,VALID,83.582,VALID,0,VALID,27.248,VALID,83,VALID,1.31016,
2011-11-28, 00:07:04,VALID,1001.84,VALID,0,VALID,83.5515,VALID,0,VALID,27.2459,VALID,76,VALID,1.55625,
2011-11-28, 00:08:04,VALID,1001.86,VALID,0,VALID,83.5515,VALID,0,VALID,27.2459,VALID,47,VALID,0.950781,
2011-11-28, 00:09:04,VALID,1001.86,VALID,0,VALID,83.7422,VALID,0,VALID,27.2049,VALID,48,VALID,0.686719,
2011-11-28, 00:10:04,VALID,1001.82,VALID,0,VALID,83.9024,VALID,0,VALID,27.1895,VALID,8,VALID,1.31367,
2011-11-28, 00:11:04,VALID,1001.82,VALID,0,VALID,84.1771,VALID,0,VALID,27.17,VALID,24,VALID,0.674609,
2011-11-28, 00:12:04,VALID,1001.8,VALID,0,VALID,84.383,VALID,0,VALID,27.0921,VALID,22,VALID,0.380469,
2011-11-28, 00:13:04,VALID,1001.8,VALID,0,VALID,84.5356,VALID,0,VALID,27.0531,VALID,46,VALID,0.639844,
2011-11-28, 00:14:04,VALID,1001.82,VALID,0,VALID,84.7492,VALID,0,VALID,26.9926,VALID,49,VALID,0.529688,
2011-11-28, 00:15:04,VALID,1001.78,VALID,0,VALID,84.8942,VALID,0,VALID,26.9752,VALID,34,VALID,0.866016,
2011-11-28, 00:16:04,VALID,1001.75,VALID,0,VALID,84.9018,VALID,0,VALID,26.9537,VALID,59,VALID,1.00234,
2011-11-28, 00:17:04,VALID,1001.74,VALID,0,VALID,84.8179,VALID,0,VALID,26.9732,VALID,69,VALID,0.777344,
2011-11-28, 00:18:04,VALID,1001.72,VALID,0,VALID,84.7874,VALID,0,VALID,26.9732,VALID,93,VALID,0.546094,
2011-11-28, 00:19:04,VALID,1001.7,VALID,0,VALID,84.8713,VALID,0,VALID,26.9537,VALID,114,VALID,0.964063,
2011-11-28, 00:20:04,VALID,1001.69,VALID,0,VALID,84.8332,VALID,0,VALID,26.9732,VALID,87,VALID,1.20938,
2011-11-28, 00:21:04,VALID,1001.64,VALID,0,VALID,84.9323,VALID,0,VALID,26.9557,VALID,86,VALID,0.675,
2011-11-28, 00:22:04,VALID,1001.62,VALID,0,VALID,84.9476,VALID,0,VALID,26.9147,VALID,62,VALID,1.10234,
2011-11-28, 00:23:04,VALID,1001.66,VALID,0,VALID,85.0086,VALID,0,VALID,26.9362,VALID,85,VALID,0.44375,
2011-11-28, 00:24:04,VALID,1001.62,VALID,0,VALID,84.9934,VALID,0,VALID,26.9362,VALID,81,VALID,0.881641,
2011-11-28, 00:25:04,VALID,1001.64,VALID,0,VALID,84.856,VALID,0,VALID,26.9752,VALID,79,VALID,0.915625,
2011-11-28, 00:26:04,VALID,1001.62,VALID,0,VALID,84.856,VALID,0,VALID,26.9342,VALID,93,VALID,0.911328,
2011-11-28, 00:27:04,VALID,1001.61,VALID,0,VALID,84.9857,VALID,0,VALID,26.9342,VALID,22,VALID,0.828125,
2011-11-28, 00:28:04,VALID,1001.61,VALID,0,VALID,85.1154,VALID,0,VALID,26.9167,VALID,13,VALID,0.829297,
2011-11-28, 00:29:04,VALID,1001.6,VALID,0,VALID,85.0925,VALID,0,VALID,26.8778,VALID,12,VALID,0.419531,
2011-11-28, 00:30:04,VALID,1001.59,VALID,0,VALID,85.3214,VALID,0,VALID,26.8173,VALID,19,VALID,0.319922,
2011-11-28, 00:31:04,VALID,1001.59,VALID,0,VALID,85.5655,VALID,0,VALID,26.7589,VALID,63,VALID,0.563281,
2011-11-28, 00:32:04,VALID,1001.53,VALID,0,VALID,85.7028,VALID,0,VALID,26.7394,VALID,33,VALID,0.56875,
2011-11-28, 00:33:04,VALID,1001.54,VALID,0,VALID,85.5579,VALID,0,VALID,26.7394,VALID,92,VALID,1.14297,
2011-11-28, 00:34:04,VALID,1001.55,VALID,0,VALID,85.4969,VALID,0,VALID,26.7394,VALID,63,VALID,0.926562,
2011-11-28, 00:35:04,VALID,1001.58,VALID,0,VALID,85.6647,VALID,0,VALID,26.7414,VALID,42,VALID,0.190234,
2011-11-28, 00:36:04,VALID,1001.58,VALID,0,VALID,85.7562,VALID,0,VALID,26.7219,VALID,85,VALID,0.661328,
2011-11-28, 00:37:04,VALID,1001.56,VALID,0,VALID,85.8325,VALID,0,VALID,26.6809,VALID,68,VALID,0.767187,
2011-11-28, 00:38:04,VALID,1001.55,VALID,0,VALID,85.9317,VALID,0,VALID,26.6809,VALID,84,VALID,0.394922,
2011-11-28, 00:39:04,VALID,1001.53,VALID,0,VALID,85.8783,VALID,0,VALID,26.683,VALID,74,VALID,0.514063,
2011-11-28, 00:40:04,VALID,1001.51,VALID,0,VALID,85.8402,VALID,0,VALID,26.6635,VALID,27,VALID,1.16914,
2011-11-28, 00:41:04,VALID,1001.49,VALID,0,VALID,85.7868,VALID,0,VALID,26.6614,VALID,28,VALID,1.0918,
2011-11-28, 00:42:04,VALID,1001.49,VALID,0,VALID,85.596,VALID,0,VALID,26.6809,VALID,35,VALID,0.871094,
2011-11-28, 00:43:04,VALID,1001.43,VALID,0,VALID,85.6723,VALID,0,VALID,26.6614,VALID,37,VALID,1.06055,
2011-11-28, 00:44:04,VALID,1001.44,VALID,0,VALID,85.6647,VALID,0,VALID,26.6809,VALID,78,VALID,1.02422,
2011-11-28, 00:45:04,VALID,1001.42,VALID,0,VALID,85.6342,VALID,0.0815089,VALID,26.7024,VALID,36,VALID,0.928516,
2011-11-28, 00:46:04,VALID,1001.44,VALID,0,VALID,85.6266,VALID,0,VALID,26.6809,VALID,68,VALID,1.0707,
2011-11-28, 00:47:04,VALID,1001.43,VALID,0,VALID,85.5426,VALID,0,VALID,26.7024,VALID,54,VALID,0.909766,
2011-11-28, 00:48:04,VALID,1001.43,VALID,0,VALID,85.5579,VALID,0,VALID,26.6809,VALID,50,VALID,0.689453,
2011-11-28, 00:49:04,VALID,1001.42,VALID,0,VALID,85.5503,VALID,0,VALID,26.6809,VALID,76,VALID,1.20117,
2011-11-28, 00:50:04,VALID,1001.4,VALID,0,VALID,85.4206,VALID,0,VALID,26.7004,VALID,17,VALID,1.21602,
2011-11-28, 00:51:04,VALID,1001.34,VALID,0,VALID,85.5198,VALID,0,VALID,26.7219,VALID,90,VALID,0.414063,
2011-11-28, 00:52:04,VALID,1001.37,VALID,0,VALID,85.5655,VALID,0,VALID,26.6809,VALID,88,VALID,0.611719,
2011-11-28, 00:53:04,VALID,1001.32,VALID,0,VALID,85.8402,VALID,0.0815089,VALID,26.642,VALID,20,VALID,0.263672,
2011-11-28, 00:54:04,VALID,1001.31,VALID,0,VALID,86.0004,VALID,0.0815089,VALID,26.603,VALID,26,VALID,0.670703,
2011-11-28, 00:55:04,VALID,1001.31,VALID,0,VALID,86.1148,VALID,0,VALID,26.605,VALID,50,VALID,1.07695,
2011-11-28, 00:56:04,VALID,1001.27,VALID,0,VALID,86.2292,VALID,0,VALID,26.5641,VALID,32,VALID,1.03008,
2011-11-28, 00:57:04,VALID,1001.25,VALID,0,VALID,86.1987,VALID,0,VALID,26.5661,VALID,56,VALID,0.821094,
2011-11-28, 00:58:04,VALID,1001.24,VALID,0,VALID,86.2826,VALID,0,VALID,26.5855,VALID,76,VALID,0.777734,
2011-11-28, 00:59:04,VALID,1001.24,VALID,0,VALID,86.3284,VALID,0,VALID,26.5446,VALID,34,VALID,0.430078,
2011-11-28, 01:00:04,VALID,1001.25,VALID,0,VALID,86.4505,VALID,0,VALID,26.5446,VALID,34,VALID,0.458203,
2011-11-28, 01:01:04,VALID,1001.26,VALID,0,VALID,86.5802,VALID,0,VALID,26.5661,VALID,24,VALID,1.22109,
2011-11-28, 01:02:04,VALID,1001.26,VALID,0,VALID,86.3971,VALID,0,VALID,26.605,VALID,37,VALID,0.879687,
2011-11-28, 01:03:04,VALID,1001.27,VALID,0,VALID,86.2369,VALID,0,VALID,26.642,VALID,355,VALID,0.861719,
2011-11-28, 01:04:04,VALID,1001.28,VALID,0,VALID,86.1453,VALID,0,VALID,26.642,VALID,94,VALID,0.455078,
2011-11-28, 01:05:04,VALID,1001.3,VALID,0,VALID,86.1301,VALID,0,VALID,26.6614,VALID,57,VALID,1.70664,
2011-11-28, 01:06:04,VALID,1001.3,VALID,0,VALID,85.9699,VALID,0,VALID,26.7414,VALID,17,VALID,1.76836,
2011-11-28, 01:07:04,VALID,1001.3,VALID,0,VALID,85.7791,VALID,0,VALID,26.7609,VALID,30,VALID,0.367188,
2011-11-28, 01:08:04,VALID,1001.27,VALID,0,VALID,85.7562,VALID,0,VALID,26.7394,VALID,40,VALID,0.750781,
2011-11-28, 01:09:04,VALID,1001.24,VALID,0,VALID,85.68,VALID,0,VALID,26.7998,VALID,64,VALID,0.71875,
2011-11-28, 01:10:04,VALID,1001.27,VALID,0,VALID,85.741,VALID,0,VALID,26.7589,VALID,87,VALID,0.925391,
2011-11-28, 01:11:04,VALID,1001.23,VALID,0,VALID,85.3977,VALID,0,VALID,26.8173,VALID,70,VALID,1.39883,
2011-11-28, 01:12:04,VALID,1001.21,VALID,0,VALID,85.2146,VALID,0,VALID,26.8368,VALID,62,VALID,1.88047,
2011-11-28, 01:13:04,VALID,1001.16,VALID,0,VALID,85.0544,VALID,0,VALID,26.8563,VALID,94,VALID,0.700781,
2011-11-28, 01:14:04,VALID,1001.21,VALID,0,VALID,85.1154,VALID,0,VALID,26.8778,VALID,49,VALID,0.259766,
2011-11-28, 01:15:04,VALID,1001.16,VALID,0,VALID,85.0544,VALID,0,VALID,26.8368,VALID,83,VALID,1.40234,
2011-11-28, 01:16:04,VALID,1001.17,VALID,0,VALID,85.0773,VALID,0,VALID,26.8368,VALID,65,VALID,1.11094,
2011-11-28, 01:17:04,VALID,1001.16,VALID,0,VALID,85.123,VALID,0,VALID,26.8583,VALID,65,VALID,0.355469,
2011-11-28, 01:18:04,VALID,1001.15,VALID,0,VALID,85.2375,VALID,0,VALID,26.8173,VALID,105,VALID,1.41328,
2011-11-28, 01:19:04,VALID,1001.17,VALID,0,VALID,85.2146,VALID,0,VALID,26.7978,VALID,108,VALID,1.43789,
2011-11-28, 01:20:04,VALID,1001.17,VALID,0,VALID,85.2604,VALID,0,VALID,26.8193,VALID,77,VALID,0.966406,
2011-11-28, 01:21:04,VALID,1001.18,VALID,0,VALID,85.2222,VALID,0,VALID,26.7589,VALID,76,VALID,2.1375,
2011-11-28, 01:22:04,VALID,1001.16,VALID,0,VALID,85.2375,VALID,0,VALID,26.7589,VALID,52,VALID,1.1043,
2011-11-28, 01:23:04,VALID,1001.13,VALID,0,VALID,85.1688,VALID,0,VALID,26.7804,VALID,70,VALID,1.39609,
2011-11-28, 01:24:04,VALID,1001.15,VALID,0,VALID,85.2299,VALID,0,VALID,26.7589,VALID,51,VALID,0.748047,
2011-11-28, 01:25:04,VALID,1001.14,VALID,0,VALID,85.2299,VALID,0,VALID,26.7394,VALID,74,VALID,0.891406,
2011-11-28, 01:26:04,VALID,1001.1,VALID,0,VALID,85.2833,VALID,0,VALID,26.7004,VALID,76,VALID,0.809375,
2011-11-28, 01:27:04,VALID,1001.1,VALID,0,VALID,85.2146,VALID,0,VALID,26.7004,VALID,25,VALID,1.08633,
2011-11-28, 01:28:04,VALID,1001.09,VALID,0,VALID,85.3061,VALID,0,VALID,26.7024,VALID,10,VALID,0.713672,
2011-11-28, 01:29:04,VALID,1001.08,VALID,0,VALID,85.3443,VALID,0,VALID,26.6614,VALID,53,VALID,0.925,
2011-11-28, 01:30:04,VALID,1001.12,VALID,0,VALID,85.4969,VALID,0,VALID,26.642,VALID,83,VALID,0.639063,
2011-11-28, 01:31:04,VALID,1001.08,VALID,0,VALID,85.5045,VALID,0,VALID,26.603,VALID,88,VALID,1.25547,
2011-11-28, 01:32:04,VALID,1001.07,VALID,0,VALID,85.4358,VALID,0,VALID,26.644,VALID,51,VALID,1.40195,
2011-11-28, 01:33:04,VALID,1001.07,VALID,0,VALID,85.1536,VALID,0,VALID,26.642,VALID,96,VALID,1.25742,
2011-11-28, 01:34:04,VALID,1001.06,VALID,0,VALID,85.0696,VALID,0,VALID,26.6635,VALID,98,VALID,1.28086,
2011-11-28, 01:35:04,VALID,1001.03,VALID,0,VALID,84.856,VALID,0,VALID,26.6635,VALID,116,VALID,1.46406,
2011-11-28, 01:36:04,VALID,1001.06,VALID,0,VALID,84.5585,VALID,0,VALID,26.7394,VALID,83,VALID,1.2625,
2011-11-28, 01:37:04,VALID,1001.06,VALID,0,VALID,84.3754,VALID,0,VALID,26.7589,VALID,61,VALID,1.04102,
2011-11-28, 01:38:04,VALID,1001.09,VALID,0,VALID,84.2228,VALID,0,VALID,26.7783,VALID,67,VALID,0.927344,
2011-11-28, 01:39:04,VALID,1001.02,VALID,0,VALID,83.9482,VALID,0,VALID,26.8368,VALID,67,VALID,1.46719,
2011-11-28, 01:40:04,VALID,1001.02,VALID,0,VALID,83.7041,VALID,0,VALID,26.8563,VALID,71,VALID,1.03828,
2011-11-28, 01:41:04,VALID,1001.01,VALID,0,VALID,83.6659,VALID,0,VALID,26.8757,VALID,27,VALID,1.57148,
2011-11-28, 01:42:04,VALID,1001,VALID,0,VALID,83.6659,VALID,0,VALID,26.8563,VALID,83,VALID,1.43398,
2011-11-28, 01:43:04,VALID,1001,VALID,0,VALID,83.4981,VALID,0,VALID,26.8757,VALID,62,VALID,1.17383,
2011-11-28, 01:44:04,VALID,1001.01,VALID,0,VALID,83.5591,VALID,0,VALID,26.8973,VALID,58,VALID,0.523828,
2011-11-28, 01:45:04,VALID,1001.03,VALID,0,VALID,83.6659,VALID,0,VALID,26.8757,VALID,102,VALID,1.06641,
2011-11-28, 01:46:04,VALID,1001.02,VALID,0,VALID,83.6812,VALID,0,VALID,26.8563,VALID,41,VALID,0.669922,
2011-11-28, 01:47:04,VALID,1001.03,VALID,0,VALID,83.727,VALID,0,VALID,26.8583,VALID,87,VALID,0.9625,
2011-11-28, 01:48:04,VALID,1001.04,VALID,0,VALID,83.8261,VALID,0,VALID,26.8563,VALID,71,VALID,1.53594,
2011-11-28, 01:49:04,VALID,1001.03,VALID,0,VALID,83.5896,VALID,0,VALID,26.8778,VALID,80,VALID,1.56289,
2011-11-28, 01:50:04,VALID,1000.99,VALID,0,VALID,83.6278,VALID,0.0815089,VALID,26.8757,VALID,349,VALID,0.603906,
2011-11-28, 01:51:04,VALID,1000.97,VALID,0,VALID,83.3837,VALID,0,VALID,26.8952,VALID,51,VALID,1.29219,
2011-11-28, 01:52:04,VALID,1000.97,VALID,0,VALID,83.3531,VALID,0,VALID,26.9342,VALID,69,VALID,1.46289,
2011-11-28, 01:53:04,VALID,1000.96,VALID,0,VALID,83.2006,VALID,0,VALID,26.9557,VALID,98,VALID,1.68398,
2011-11-28, 01:54:04,VALID,1000.94,VALID,0,VALID,83.2845,VALID,0,VALID,26.9342,VALID,62,VALID,0.940234,
2011-11-28, 01:55:04,VALID,1000.93,VALID,0,VALID,83.1548,VALID,0.0815089,VALID,26.9342,VALID,50,VALID,1.30586,
2011-11-28, 01:56:04,VALID,1000.89,VALID,0,VALID,83.0632,VALID,0,VALID,26.9537,VALID,108,VALID,1.41172,
2011-11-28, 01:57:04,VALID,1000.91,VALID,0,VALID,83.0632,VALID,0,VALID,26.9732,VALID,82,VALID,1.2875,
2011-11-28, 01:58:04,VALID,1000.88,VALID,0,VALID,82.8344,VALID,0.0815089,VALID,26.9732,VALID,100,VALID,1.85469,
2011-11-28, 01:59:04,VALID,1000.84,VALID,0,VALID,82.7734,VALID,0,VALID,27.0121,VALID,96,VALID,0.598437,
2011-11-28, 02:00:04,VALID,1000.89,VALID,0,VALID,82.6894,VALID,0,VALID,27.0121,VALID,62,VALID,1.02852,
2011-11-28, 02:01:04,VALID,1000.89,VALID,0,VALID,82.781,VALID,0.0815089,VALID,27.0121,VALID,82,VALID,0.780859,
2011-11-28, 02:02:04,VALID,1000.9,VALID,0,VALID,82.6513,VALID,0.0815089,VALID,27.0316,VALID,46,VALID,1.10312,
2011-11-28, 02:03:04,VALID,1000.84,VALID,0,VALID,82.6284,VALID,0.0815089,VALID,27.0316,VALID,101,VALID,1.57891,
2011-11-28, 02:04:04,VALID,1000.89,VALID,0,VALID,82.6055,VALID,0.0815089,VALID,27.0121,VALID,26,VALID,1.42734,
2011-11-28, 02:05:04,VALID,1000.88,VALID,0,VALID,82.7276,VALID,0,VALID,27.0336,VALID,62,VALID,0.788672,
2011-11-28, 02:06:04,VALID,1000.87,VALID,0,VALID,82.842,VALID,0.0815089,VALID,26.9926,VALID,23,VALID,0.505859,
2011-11-28, 02:07:04,VALID,1000.86,VALID,0,VALID,82.9793,VALID,0.0815089,VALID,26.9321,VALID,45,VALID,0.794531,
2011-11-28, 02:08:04,VALID,1000.86,VALID,0,VALID,83.0861,VALID,0.0815089,VALID,26.9537,VALID,95,VALID,1.04883,
2011-11-28, 02:09:04,VALID,1000.88,VALID,0,VALID,83.0785,VALID,0.0815089,VALID,26.9537,VALID,83,VALID,2.21133,
2011-11-28, 02:10:04,VALID,1000.88,VALID,0,VALID,83.0556,VALID,0.0815089,VALID,26.9732,VALID,76,VALID,1.15039,
2011-11-28, 02:11:04,VALID,1000.88,VALID,0,VALID,82.9946,VALID,0,VALID,26.9732,VALID,23,VALID,0.910937,
2011-11-28, 02:12:04,VALID,1000.85,VALID,0,VALID,83.0251,VALID,0.0815089,VALID,26.9926,VALID,69,VALID,0.813281,
2011-11-28, 02:13:04,VALID,1000.85,VALID,0,VALID,83.109,VALID,0.0815089,VALID,26.9732,VALID,67,VALID,0.554297,
2011-11-28, 02:14:04,VALID,1000.86,VALID,0,VALID,83.2158,VALID,0.0815089,VALID,26.9537,VALID,63,VALID,0.991406,
2011-11-28, 02:15:04,VALID,1000.84,VALID,0,VALID,83.1014,VALID,0.0815089,VALID,26.9537,VALID,60,VALID,1.2582,
2011-11-28, 02:16:04,VALID,1000.77,VALID,0,VALID,82.987,VALID,0.0815089,VALID,26.9537,VALID,25,VALID,1.51328,
2011-11-28, 02:17:04,VALID,1000.78,VALID,0,VALID,83.1395,VALID,0,VALID,26.9732,VALID,60,VALID,1.06758,
2011-11-28, 02:18:04,VALID,1000.77,VALID,0,VALID,83.1472,VALID,0,VALID,26.9947,VALID,88,VALID,1.08828,
2011-11-28, 02:19:04,VALID,1000.78,VALID,0,VALID,83.0404,VALID,0,VALID,26.9732,VALID,86,VALID,1.68789,
2011-11-28, 02:20:04,VALID,1000.79,VALID,0,VALID,83.0175,VALID,0,VALID,26.9926,VALID,102,VALID,0.628516,
2011-11-28, 02:21:04,VALID,1000.74,VALID,0,VALID,83.1395,VALID,0,VALID,26.9947,VALID,331,VALID,0.925781,
2011-11-28, 02:22:04,VALID,1000.79,VALID,0,VALID,83.2463,VALID,0,VALID,26.9342,VALID,58,VALID,1.17383,
2011-11-28, 02:23:04,VALID,1000.76,VALID,0,VALID,83.3837,VALID,0.0815089,VALID,26.9342,VALID,30,VALID,0.560547,
2011-11-28, 02:24:04,VALID,1000.79,VALID,0,VALID,83.5362,VALID,0,VALID,26.8952,VALID,24,VALID,0.910156,
2011-11-28, 02:25:04,VALID,1000.75,VALID,0,VALID,83.7193,VALID,0.0815089,VALID,26.8757,VALID,29,VALID,1.0332,
2011-11-28, 02:26:04,VALID,1000.7,VALID,0,VALID,83.7651,VALID,0,VALID,26.8368,VALID,54,VALID,1.24023,
2011-11-28, 02:27:04,VALID,1000.7,VALID,0,VALID,83.8261,VALID,0,VALID,26.8583,VALID,54,VALID,0.955859,
2011-11-28, 02:28:04,VALID,1000.72,VALID,0,VALID,83.9101,VALID,0.0815089,VALID,26.8173,VALID,24,VALID,0.585547,
2011-11-28, 02:29:04,VALID,1000.73,VALID,0,VALID,83.9253,VALID,0,VALID,26.7978,VALID,86,VALID,0.936328,
2011-11-28, 02:30:04,VALID,1000.71,VALID,0,VALID,83.9787,VALID,0,VALID,26.7978,VALID,32,VALID,1.05352,
2011-11-28, 02:31:04,VALID,1000.78,VALID,0,VALID,84.055,VALID,0,VALID,26.7589,VALID,31,VALID,0.424609,
2011-11-28, 02:32:04,VALID,1000.78,VALID,0,VALID,84.0931,VALID,0,VALID,26.7589,VALID,71,VALID,0.866406,
2011-11-28, 02:33:04,VALID,1000.8,VALID,0,VALID,84.1618,VALID,0,VALID,26.7589,VALID,91,VALID,1.08867,
2011-11-28, 02:34:04,VALID,1000.79,VALID,0,VALID,84.2457,VALID,0,VALID,26.7394,VALID,66,VALID,0.570703,
2011-11-28, 02:35:04,VALID,1000.76,VALID,0,VALID,84.2457,VALID,0.0815089,VALID,26.6984,VALID,41,VALID,1.11016,
2011-11-28, 02:36:04,VALID,1000.75,VALID,0,VALID,84.2915,VALID,0.0815089,VALID,26.7394,VALID,25,VALID,0.340625,
2011-11-28, 02:37:04,VALID,1000.75,VALID,0,VALID,84.3068,VALID,0,VALID,26.7004,VALID,82,VALID,0.676172,
2011-11-28, 02:38:04,VALID,1000.74,VALID,0,VALID,84.3907,VALID,0,VALID,26.7004,VALID,91,VALID,0.830859,
2011-11-28, 02:39:04,VALID,1000.71,VALID,0,VALID,84.4288,VALID,0.0815089,VALID,26.7004,VALID,59,VALID,0.665625,
2011-11-28, 02:40:04,VALID,1000.75,VALID,0,VALID,84.4899,VALID,0,VALID,26.6614,VALID,91,VALID,0.603125,
2011-11-28, 02:41:04,VALID,1000.73,VALID,0,VALID,84.5967,VALID,0,VALID,26.6635,VALID,82,VALID,1.15195,
2011-11-28, 02:42:04,VALID,1000.7,VALID,0,VALID,84.6882,VALID,0,VALID,26.6614,VALID,72,VALID,0.720312,
2011-11-28, 02:43:04,VALID,1000.7,VALID,0,VALID,84.6348,VALID,0.0815089,VALID,26.7004,VALID,70,VALID,0.856641,
2011-11-28, 02:44:04,VALID,1000.65,VALID,0,VALID,84.4746,VALID,0,VALID,26.7199,VALID,68,VALID,1.15078,
2011-11-28, 02:45:04,VALID,1000.65,VALID,0,VALID,84.4822,VALID,0.0815089,VALID,26.7004,VALID,90,VALID,1.15039,
2011-11-28, 02:46:04,VALID,1000.64,VALID,0,VALID,84.383,VALID,0.0815089,VALID,26.7199,VALID,34,VALID,1.59805,
2011-11-28, 02:47:04,VALID,1000.64,VALID,0,VALID,84.2991,VALID,0,VALID,26.7394,VALID,46,VALID,0.788672,
2011-11-28, 02:48:04,VALID,1000.65,VALID,0,VALID,84.3068,VALID,0,VALID,26.7394,VALID,59,VALID,0.991016,
2011-11-28, 02:49:04,VALID,1000.68,VALID,0,VALID,84.3983,VALID,0,VALID,26.7414,VALID,14,VALID,0.854688,
2011-11-28, 02:50:04,VALID,1000.68,VALID,0,VALID,84.3602,VALID,0,VALID,26.7004,VALID,5,VALID,1.68242,
2011-11-28, 02:51:04,VALID,1000.67,VALID,0,VALID,84.3907,VALID,0,VALID,26.7199,VALID,16,VALID,0.563672,
2011-11-28, 02:52:04,VALID,1000.66,VALID,0,VALID,84.528,VALID,0,VALID,26.6809,VALID,69,VALID,1.45352,
2011-11-28, 02:53:04,VALID,1000.66,VALID,0,VALID,84.6882,VALID,0.0815089,VALID,26.7024,VALID,39,VALID,0.677344,
2011-11-28, 02:54:04,VALID,1000.63,VALID,0,VALID,84.8866,VALID,0.0815089,VALID,26.5835,VALID,24,VALID,0.679688,
2011-11-28, 02:55:04,VALID,1000.64,VALID,0,VALID,85.0544,VALID,0,VALID,26.5641,VALID,59,VALID,1.12852,
2011-11-28, 02:56:04,VALID,1000.68,VALID,0,VALID,84.9628,VALID,0,VALID,26.5641,VALID,17,VALID,1.5082,
2011-11-28, 02:57:04,VALID,1000.66,VALID,0,VALID,84.8484,VALID,0,VALID,26.603,VALID,64,VALID,0.582422,
2011-11-28, 02:58:04,VALID,1000.67,VALID,0,VALID,84.8255,VALID,0,VALID,26.5641,VALID,360,VALID,1.38164,
2011-11-28, 02:59:04,VALID,1000.65,VALID,0,VALID,85.0544,VALID,0,VALID,26.5446,VALID,51,VALID,0.805078,
2011-11-28, 03:00:04,VALID,1000.65,VALID,0,VALID,85.3367,VALID,0,VALID,26.5056,VALID,43,VALID,0.525781,
2011-11-28, 03:01:04,VALID,1000.63,VALID,0,VALID,85.3901,VALID,0,VALID,26.5076,VALID,19,VALID,0.790625,
2011-11-28, 03:02:04,VALID,1000.62,VALID,0,VALID,85.474,VALID,0,VALID,26.4492,VALID,351,VALID,1.24297,
2011-11-28, 03:03:04,VALID,1000.65,VALID,0,VALID,85.4892,VALID,0,VALID,26.4492,VALID,357,VALID,1.12656,
2011-11-28, 03:04:04,VALID,1000.64,VALID,0,VALID,85.7105,VALID,0,VALID,26.4102,VALID,13,VALID,0.822656,
2011-11-28, 03:05:04,VALID,1000.66,VALID,0,VALID,85.741,VALID,0,VALID,26.4102,VALID,61,VALID,0.732813,
2011-11-28, 03:06:04,VALID,1000.69,VALID,0,VALID,85.8325,VALID,0,VALID,26.3693,VALID,48,VALID,0.6125,
2011-11-28, 03:07:04,VALID,1000.68,VALID,0,VALID,86.008,VALID,0,VALID,26.3323,VALID,11,VALID,1.06719,
2011-11-28, 03:08:04,VALID,1000.68,VALID,0,VALID,86.1453,VALID,0,VALID,26.3518,VALID,67,VALID,1.47695,
2011-11-28, 03:09:04,VALID,1000.66,VALID,0,VALID,86.0156,VALID,0,VALID,26.3303,VALID,22,VALID,0.979297,
2011-11-28, 03:10:04,VALID,1000.64,VALID,0,VALID,86.1377,VALID,0,VALID,26.3303,VALID,14,VALID,1.02813,
2011-11-28, 03:11:04,VALID,1000.64,VALID,0,VALID,85.9393,VALID,0,VALID,26.4102,VALID,15,VALID,2.08437,
2011-11-28, 03:12:04,VALID,1000.66,VALID,0,VALID,85.5426,VALID,0,VALID,26.4667,VALID,31,VALID,0.892969,
2011-11-28, 03:13:04,VALID,1000.68,VALID,0,VALID,85.1536,VALID,0,VALID,26.4861,VALID,3,VALID,0.938281,
2011-11-28, 03:14:04,VALID,1000.69,VALID,0,VALID,85.2451,VALID,0,VALID,26.4492,VALID,360,VALID,0.411328,
2011-11-28, 03:15:04,VALID,1000.7,VALID,0,VALID,85.8478,VALID,0,VALID,26.3693,VALID,9,VALID,1.46641,
2011-11-28, 03:16:04,VALID,1000.72,VALID,0,VALID,85.9088,VALID,0,VALID,26.3323,VALID,35,VALID,0.669922,
2011-11-28, 03:17:04,VALID,1000.76,VALID,0,VALID,86.3055,VALID,0,VALID,26.2564,VALID,23,VALID,0.712891,
2011-11-28, 03:18:04,VALID,1000.76,VALID,0,VALID,86.5878,VALID,0,VALID,26.1959,VALID,23,VALID,0.680859,
2011-11-28, 03:19:04,VALID,1000.78,VALID,0,VALID,86.6641,VALID,0,VALID,26.2174,VALID,2,VALID,0.793359,
2011-11-28, 03:20:04,VALID,1000.76,VALID,0,VALID,86.6946,VALID,0,VALID,26.157,VALID,1,VALID,0.894141,
2011-11-28, 03:21:04,VALID,1000.8,VALID,0,VALID,87.076,VALID,0,VALID,26.0596,VALID,5,VALID,0.459766,
2011-11-28, 03:22:04,VALID,1000.77,VALID,0,VALID,87.343,VALID,0,VALID,26.0012,VALID,5,VALID,0.551172,
2011-11-28, 03:23:04,VALID,1000.83,VALID,0,VALID,87.7245,VALID,0,VALID,25.9622,VALID,350,VALID,1.10742,
2011-11-28, 03:24:04,VALID,1000.86,VALID,0,VALID,87.9457,VALID,0,VALID,25.9232,VALID,16,VALID,0.844922,
2011-11-28, 03:25:04,VALID,1000.86,VALID,0,VALID,88.1212,VALID,0,VALID,25.8843,VALID,17,VALID,0.962891,
2011-11-28, 03:26:04,VALID,1000.78,VALID,0,VALID,88.5026,VALID,0,VALID,25.8648,VALID,24,VALID,1.20625,
2011-11-28, 03:27:04,VALID,1000.78,VALID,0,VALID,88.4798,VALID,0,VALID,25.9232,VALID,20,VALID,0.963672,
2011-11-28, 03:28:04,VALID,1000.76,VALID,0,VALID,88.1212,VALID,0,VALID,25.9817,VALID,28,VALID,0.614453,
2011-11-28, 03:29:04,VALID,1000.8,VALID,0,VALID,87.6787,VALID,0,VALID,26.0421,VALID,18,VALID,0.864062,
2011-11-28, 03:30:04,VALID,1000.79,VALID,0,VALID,87.6101,VALID,0,VALID,26.0206,VALID,7,VALID,0.5125,
2011-11-28, 03:31:04,VALID,1000.79,VALID,0,VALID,87.6711,VALID,0,VALID,25.9777,VALID,8,VALID,0.780078,
2011-11-28, 03:32:04,VALID,1000.8,VALID,0,VALID,87.9686,VALID,0,VALID,26.0206,VALID,11,VALID,1.78711,
2011-11-28, 03:33:04,VALID,1000.82,VALID,0,VALID,87.6635,VALID,0,VALID,26.0576,VALID,20,VALID,1.45469,
2011-11-28, 03:34:04,VALID,1000.86,VALID,0,VALID,87.3202,VALID,0,VALID,26.1375,VALID,21,VALID,0.785156,
2011-11-28, 03:35:04,VALID,1000.85,VALID,0,VALID,87.2591,VALID,0,VALID,26.157,VALID,52,VALID,0.646094,
2011-11-28, 03:36:04,VALID,1000.86,VALID,0,VALID,87.2668,VALID,0,VALID,26.194,VALID,30,VALID,1.3793,
2011-11-28, 03:37:04,VALID,1000.85,VALID,0,VALID,86.8548,VALID,0,VALID,26.2544,VALID,46,VALID,0.567187,
2011-11-28, 03:38:04,VALID,1000.89,VALID,0,VALID,86.7327,VALID,0,VALID,26.2739,VALID,57,VALID,0.341406,
2011-11-28, 03:39:04,VALID,1000.87,VALID,0,VALID,86.8472,VALID,0,VALID,26.2134,VALID,4,VALID,0.915625,
2011-11-28, 03:40:04,VALID,1000.9,VALID,0,VALID,86.9082,VALID,0,VALID,26.194,VALID,2,VALID,0.506641,
2011-11-28, 03:41:04,VALID,1000.9,VALID,0,VALID,87.1447,VALID,0,VALID,26.1355,VALID,2,VALID,0.553906,
2011-11-28, 03:42:04,VALID,1000.95,VALID,0,VALID,87.4193,VALID,0,VALID,26.118,VALID,5,VALID,0.594922,
2011-11-28, 03:43:04,VALID,1000.94,VALID,0,VALID,87.5414,VALID,0,VALID,26.0187,VALID,5,VALID,0.406641,
2011-11-28, 03:44:04,VALID,1000.95,VALID,0,VALID,87.8237,VALID,0,VALID,25.9797,VALID,1,VALID,0.414453,
2011-11-28, 03:45:04,VALID,1000.96,VALID,0,VALID,88.1517,VALID,0,VALID,25.9213,VALID,1,VALID,0.309766,